Regional Weather Roundup
Issued by NWS Cleveland, OH

Home | Current Version | Previous Version | Graphics & Text | Print | Product List | Glossary On
Versions: 1 2 3 4 5 6 7 8 9 10 11 12 13 14 15 16 17 18 19 20 21 22 23 24 25 26 27 28 29 30 31 32 33 34 35 36 37 38 39 40 41 42 43 44 45 46 47 48 49 50
000
ASUS41 KCLE 141412
RWRCLE
OHIO REGIONAL WEATHER ROUNDUP
NATIONAL WEATHER SERVICE WILMINGTON, OH
900 AM EST SUN FEB 14 2016

NOTE: "FAIR" INDICATES FEW OR NO CLOUDS BELOW 12,000 FEET WITH NO
SIGNIFICANT WEATHER AND/OR OBSTRUCTIONS TO VISIBILITY.

OHZ001>008-015>018-024>027-034-035-043-044-141500-
   NORTHWEST OHIO

CITY           SKY/WX    TMP DP  RH WIND       PRES   REMARKS
DEFIANCE       FAIR      11   3  70 E5        30.46S WCI   3
FINDLAY        FAIR       8   4  83 SE5       30.45R WCI   0
TOLEDO EXPRESS FAIR       8   4  83 CALM      30.47R
TOLEDO EXEC    FAIR      11   4  73 SE5       30.49R WCI   3
LIMA           FAIR       8   3  80 SE7       30.43S WCI  -3
$$

OHZ009>014-019>023-028>033-038-089-141500-
   NORTHEAST OHIO

CITY           SKY/WX    TMP DP  RH WIND       PRES   REMARKS
CLE-HOPKINS    FAIR       4   2  91 CALM      30.49S
CLE-LAKEFRONT  CLOUDY    12   4  70 S6        30.48R WCI   3
CUY CO. ARPT   PTSUNNY   14   3  62 S8        30.46R WCI   3
LORAIN-ELYRIA  FAIR      -5  -7  91 CALM      30.47R
ASHTABULA      FLURRIES   9   5  84 SE3       30.46R
AKRON-CANTON   FAIR       2   2 100 S3        30.44R FOG
WOOSTER        FAIR      -1  -1 100 CALM      30.45R FOG
MANSFIELD      FAIR       2   0  91 S5        30.42R WCI  -8
YOUNGSTOWN     CLOUDY     5   1  83 E3        30.43S
$$

OHZ042-051>053-060>062-070>072-077>081-141500-
  SOUTHWEST OHIO

CITY           SKY/WX    TMP DP  RH WIND       PRES   REMARKS
CINC-COVINGTON CLOUDY    15   5  64 SE10      30.42F WCI   2
CINC-LUNKEN    CLOUDY    15   4  61 E7        30.48F WCI   5
HAMILTON       CLOUDY    15   3  59 MISG      30.47F
DAYTON         PTSUNNY   10   3  73 SE10      30.43S WCI  -4
WRIGHT-PAT AFB PTSUNNY   10   2  68 E7        30.44F WCI  -1
DAYTON GENERAL PTSUNNY   11   1  64 SE8       30.43R WCI  -1
WILMINGTON     PTSUNNY   10   2  69 SE8       30.43S WCI  -2
$$

OHZ036-037-039>041-045>050-054>059-063>069-073>076-082>088-141500-
  CENTRAL AND SOUTHEAST OHIO

CITY           SKY/WX    TMP DP  RH WIND       PRES   REMARKS
COLUMBUS       PTSUNNY    5  -1  76 CALM      30.47S
OSU AIRPORT    FAIR       8   2  76 SE7       30.46S WCI  -3
BOLTON FIELD   SUNNY      3   0  85 CALM      30.46S
RICKENBACK AFB FAIR       1  -3  83 CALM      30.48S
NEWARK         FAIR       4   1  88 CALM      30.47S
MARION         FAIR       7   1  76 SE9       30.45R WCI  -7
LANCASTER      FAIR       2  -1  88 CALM      30.48R
ZANESVILLE     FAIR       1  -1  91 CALM      30.47S
NEW PHILLY     FAIR       5  32 100 CALM      30.49R
$$



USA.gov is the U.S. government's official web portal to all federal, state and local government web resources and services.